GFSSE_850_dewp_099.txt.gz
Dewpoint
8 4 8 10 9 8 8 7 6 4 4 8 7 7 10 11 12 12 10 7 7 6 5 7 7 9 10 11 12 11 11 9 9 9 7 8 9 9 10 10 10 10 10
1 -2 0 9 10 9 8 8 7 6 5 4 5 5 6 11 12 12 11 10 8 7 5 7 8 8 10 10 11 11 11 12 12 11 11 10 8 7 7 8 8 9 9
-1 -4 -2 4 10 10 9 9 8 7 6 6 5 4 7 8 10 11 11 11 10 8 5 8 10 9 10 11 10 9 9 10 11 11 11 11 10 9 9 9 9 9 8
-4 -4 -3 -2 3 10 10 10 9 9 7 6 6 5 7 9 8 9 11 10 9 7 8 9 10 12 11 10 10 8 8 10 11 11 12 11 11 10 10 9 8 9 9
-3 -3 -3 -3 -2 3 10 10 10 10 9 8 6 6 6 7 10 8 8 8 9 9 9 9 9 11 10 10 10 8 10 10 10 11 10 10 10 10 10 9 6 4 8
-1 -3 -3 -3 -3 0 7 10 11 11 10 10 8 7 6 7 8 9 7 5 8 8 9 8 9 11 11 10 10 10 11 10 10 11 10 10 10 10 9 8 5 2 1
-2 -3 -3 -1 0 -1 4 10 11 11 11 11 10 8 7 6 6 6 4 5 7 7 8 8 10 10 10 10 10 10 10 10 9 10 10 10 10 9 8 5 0 0 -1
-6 -6 -5 -2 1 2 4 8 11 12 12 12 11 10 8 7 8 7 8 9 7 7 3 10 9 9 10 10 9 9 9 9 9 8 9 9 9 8 8 -0 -4 -3 -5
-5 -4 -3 -2 -0 2 4 8 12 12 13 13 12 13 11 9 8 9 9 9 8 7 6 10 8 9 10 10 9 8 6 5 4 7 9 8 8 8 -1 -4 -1 -4 -5
-4 -3 -2 0 1 1 1 8 12 12 13 14 13 13 12 10 11 11 10 9 10 7 9 9 9 9 10 8 7 7 7 7 6 7 8 6 8 6 5 4 -0 1 -5
-2 -2 -3 -1 1 1 1 4 12 12 12 13 12 13 12 11 12 10 9 9 10 7 10 7 8 9 9 8 8 7 7 7 6 4 4 8 8 7 6 7 3 -1 0
-3 -5 -2 2 3 5 2 4 11 13 12 13 12 11 11 12 9 8 8 9 9 7 8 5 7 9 9 9 9 8 7 7 6 3 2 8 8 7 6 2 -1 3 -1
-2 -2 0 3 5 4 3 2 6 12 12 12 11 12 11 10 9 8 10 10 11 10 8 6 8 9 9 10 9 8 7 7 6 1 3 8 7 7 6 1 4 -8 -8
-1 1 2 5 7 7 7 4 6 10 11 11 11 11 11 9 9 9 10 10 9 9 8 8 9 9 9 8 7 7 7 5 1 -2 -0 8 8 7 3 2 -5 -7 -10
0 3 4 7 8 8 8 6 6 6 9 11 11 12 11 10 10 9 10 10 9 9 8 8 10 9 7 7 7 7 6 5 5 -2 1 7 7 5 2 1 -8 -9 -10
2 4 6 8 9 9 8 7 5 6 9 10 10 10 11 10 10 10 10 10 10 10 7 8 9 7 7 7 7 6 6 6 5 2 -0 6 2 0 -7 -7 -5 -10 -10
2 4 6 8 10 9 8 7 4 7 9 10 10 11 10 10 10 10 10 10 10 10 7 8 9 7 7 7 7 6 6 6 5 2 -1 0 -3 -8 -8 -8 -8 -9 -8
3 3 6 8 9 9 8 6 5 6 9 11 10 10 10 10 10 10 10 10 9 9 5 8 9 8 6 6 6 6 6 6 5 1 -1 -3 -7 -7 -6 -6 -6 -5 -5
1 4 5 8 9 9 8 6 6 8 10 9 10 10 11 11 11 10 10 10 8 10 4 6 9 7 6 7 7 6 6 6 5 1 -5 -5 -7 -6 -5 -4 -3 -3 -3
-0 4 6 8 9 9 8 6 7 10 10 10 10 10 10 11 10 10 10 8 10 4 2 1 8 7 6 6 6 6 6 6 5 -1 -5 -3 -5 -5 -4 -2 -2 -2 -2
-2 3 7 8 9 9 8 6 5 8 10 10 10 10 11 11 10 10 10 9 7 1 -3 -2 5 5 6 6 6 6 6 6 6 3 -2 -2 -3 -3 -2 -1 -1 -1 -1
-4 4 8 8 9 8 8 6 3 5 9 10 10 11 10 10 11 10 10 8 4 -2 -5 -6 5 6 6 6 6 6 7 6 6 6 6 2 -1 -2 -2 -1 -1 -1 -0
1 4 7 8 9 8 8 6 4 8 9 9 10 10 10 10 10 10 10 8 7 -5 -4 -6 3 6 6 6 6 5 7 7 6 7 6 5 4 4 3 2 2 3 4
2 6 8 8 9 8 8 6 4 6 7 8 9 10 10 10 10 9 10 9 9 -5 -7 -6 5 5 5 6 6 5 -2 3 5 6 5 5 5 5 4 3 4 4 5
5 7 8 8 9 9 8 6 6 8 8 9 8 9 8 9 10 10 10 10 9 -1 -2 -6 5 4 3 5 6 3 3 4 2 3 4 3 5 4 4 4 5 4 4
9 8 8 8 9 9 8 5 7 8 7 8 8 8 8 8 9 9 10 10 8 4 2 2 1 3 3 4 3 -1 2 2 1 2 2 3 3 4 4 4 4 4 3

GFSSE_850_dewp_105.txt.gz
Dewpoint
-5 -3 -4 -2 2 5 8 10 9 8 10 11 12 12 12 11 10 6 5 7 7 5 5 6 7 10 10 11 11 11 10 9 10 11 11 11 10 9 10 10 10 10 10
-8 -7 -3 0 4 6 8 9 7 8 10 11 11 12 11 11 10 6 7 7 7 6 6 6 7 9 10 11 11 11 11 9 9 10 11 11 11 10 10 10 10 10 10
-8 -8 -4 1 5 7 8 7 6 7 9 10 11 11 11 11 10 6 7 7 7 6 7 8 9 9 10 10 11 11 10 10 9 10 11 11 11 10 9 9 9 9 9
-9 -10 -8 0 6 8 8 8 7 6 7 9 9 10 11 11 9 8 8 8 7 8 7 8 9 9 9 11 11 10 10 10 10 10 11 11 12 9 7 8 9 9 8
-8 -8 -5 -0 3 8 8 8 8 7 6 6 6 8 9 9 10 11 9 9 9 9 8 8 9 9 10 11 11 10 9 9 10 10 9 11 10 8 9 9 9 9 9
-8 -7 -5 -2 -1 4 9 9 9 8 7 6 6 7 8 10 11 11 10 10 10 9 7 6 7 8 9 10 10 9 8 9 10 10 10 11 11 10 9 9 9 8 9
-8 -6 -4 -3 0 4 7 9 10 9 9 8 7 7 8 10 10 10 10 10 10 8 8 5 6 7 10 10 9 9 9 10 11 11 12 11 10 8 6 7 9 9 9
-6 -5 -3 -1 1 3 7 8 10 10 10 9 8 8 9 9 11 10 10 10 8 8 7 6 3 6 9 9 9 9 9 10 10 10 10 10 9 7 7 4 5 9 9
-4 -3 -2 -1 0 3 5 8 9 10 11 10 9 9 9 9 10 10 10 10 8 7 7 8 7 7 8 9 9 8 10 10 10 10 10 10 10 8 8 5 2 -2 1
-2 -1 -0 -1 -1 0 3 6 8 8 10 11 11 10 9 9 10 10 10 8 8 7 10 10 7 7 8 10 10 9 10 11 10 10 10 10 9 7 5 8 0 -7 -4
-0 -0 1 1 -0 0 2 4 6 9 9 10 12 12 11 10 10 9 9 8 6 9 9 9 7 7 9 10 10 10 10 10 10 10 10 10 9 8 7 -0 5 -4 -6
-0 -1 1 1 1 2 3 4 6 11 13 14 12 12 11 11 11 10 9 8 9 10 9 9 9 9 10 9 10 10 10 10 9 9 9 9 9 9 8 -1 5 -2 -2
1 -1 -2 1 3 3 1 2 4 12 13 13 13 12 12 12 11 11 10 9 10 11 10 10 9 10 9 9 10 10 8 6 7 8 9 8 8 8 8 6 4 3 0
2 1 -1 -1 2 3 3 4 4 4 10 13 13 12 12 12 12 11 10 10 11 10 10 10 10 9 9 8 9 8 7 7 6 8 8 7 7 8 8 8 6 5 2
4 3 2 -0 -0 1 3 5 4 4 6 12 11 11 12 11 11 11 10 9 10 9 9 10 11 9 7 10 9 7 7 6 6 8 8 6 6 7 8 8 8 5 2
2 4 5 3 1 1 4 6 6 6 7 10 8 10 11 11 11 9 9 10 10 9 10 10 10 8 6 9 7 7 7 7 6 6 8 7 7 7 8 8 8 6 2
-3 0 4 5 3 2 5 7 7 7 7 7 6 7 9 8 10 9 10 10 10 10 10 10 10 9 7 9 8 8 8 7 4 5 7 7 6 7 8 7 8 7 7
-4 -4 -4 3 6 3 4 7 8 8 8 8 6 7 10 10 9 10 10 10 10 10 10 10 10 8 8 8 9 9 8 6 4 4 6 6 7 7 7 7 7 7 6
-5 -5 -5 -3 5 6 5 7 8 9 8 8 7 8 9 11 11 11 11 10 10 10 9 9 9 8 5 8 8 8 7 6 5 5 6 5 7 7 7 7 7 4 -2
-7 -6 -6 -5 1 7 7 8 9 10 9 8 7 8 9 9 10 11 11 11 10 10 9 7 7 7 6 8 7 8 7 6 6 7 2 7 7 6 6 4 2 -2 -5
-7 -7 -5 -6 -1 7 7 8 10 9 9 8 8 7 9 10 10 11 11 10 10 10 9 8 8 6 9 7 8 7 7 6 6 5 5 7 6 6 3 2 -1 -2 -3
-5 -7 -5 -4 -2 5 8 8 9 9 8 8 9 8 10 10 9 10 10 10 10 10 10 8 7 8 8 8 7 7 7 7 7 6 5 6 5 5 3 -1 2 -0 -1
-3 -5 -4 -1 -1 5 8 9 9 9 9 8 10 9 8 9 10 10 10 10 10 10 9 9 7 8 7 7 7 7 7 7 7 7 6 5 3 2 2 1 -0 -0 -0
-1 -3 -2 1 0 5 9 9 9 8 8 7 7 9 8 8 9 9 9 10 9 8 8 8 8 8 6 7 7 7 6 5 7 6 6 1 1 1 0 2 -0 -0 -1
0 -2 -1 1 3 4 8 9 9 9 8 7 6 7 7 8 10 10 10 10 9 9 8 7 7 7 5 5 6 7 6 5 5 3 5 6 3 3 1 -0 0 -1 -0
2 1 2 3 6 6 8 9 9 8 8 7 5 6 8 9 9 8 9 9 9 9 8 7 7 7 6 6 7 6 6 5 4 1 1 2 3 2 2 2 3 3 3

GFSSE_850_dewp_111.txt.gz
Dewpoint
10 6 -8 -8 -7 -2 3 8 10 10 10 10 10 11 10 9 9 7 5 6 7 8 9 10 11 11 11 11 10 9 8 9 10 11 11 11 10 10 10 11 12 12 11
9 -9 -9 -8 -7 -1 5 8 9 10 8 8 10 11 11 9 9 7 6 7 8 9 9 10 10 11 10 10 10 9 9 9 10 11 11 10 11 11 11 12 13 11 11
8 -8 -7 -7 -7 -1 5 7 8 7 7 9 10 12 11 10 10 7 7 8 9 11 9 9 10 10 11 11 10 9 8 8 10 10 10 13 12 10 11 12 11 11 11
1 -6 -7 -8 -8 -1 5 7 7 6 8 10 11 12 11 11 10 8 8 9 11 12 7 7 8 10 11 11 10 10 8 7 9 10 13 12 12 11 10 10 10 11 11
5 -7 -8 -8 -9 1 6 7 7 6 8 10 11 12 12 11 11 9 8 8 8 10 7 6 10 9 10 11 11 10 9 8 8 12 11 13 12 10 9 9 9 10 10
9 8 -8 -8 -7 -3 4 7 7 7 7 9 11 12 12 12 11 10 8 9 8 9 9 8 9 8 10 10 11 10 10 7 7 13 10 12 10 10 9 9 10 10 10
9 6 -8 -7 -5 -3 1 6 8 7 7 8 10 11 12 12 11 10 9 9 8 9 8 8 9 9 9 10 11 10 8 4 11 12 11 11 11 9 9 10 10 10 10
5 -4 -8 -7 -4 -0 1 5 8 8 8 8 9 10 11 11 11 10 9 10 9 10 9 8 8 8 9 8 11 10 8 8 10 10 9 11 10 10 10 10 9 10 10
-4 -7 -8 -6 -4 -0 2 5 8 9 9 8 8 9 9 10 11 10 10 10 10 10 9 8 8 9 10 10 10 10 8 8 10 12 10 11 10 10 9 8 9 9 10
2 -7 -7 -6 -4 -2 -0 3 7 9 9 9 9 9 9 10 11 10 11 11 10 10 9 8 9 10 8 9 9 9 8 9 10 10 11 11 10 10 7 8 9 9 10
12 9 3 -4 -3 -2 -1 -0 5 8 9 10 10 10 9 11 12 11 12 11 11 11 10 9 9 9 9 9 9 9 9 10 12 11 11 10 10 10 8 7 7 7 8
12 11 12 12 13 2 -1 -1 2 6 7 9 10 11 10 12 13 13 13 12 11 11 11 9 8 9 10 9 10 10 9 11 11 11 10 9 9 9 9 8 7 5 4
10 10 10 13 14 11 12 13 13 7 11 10 13 13 13 14 13 13 13 13 11 11 11 10 8 9 11 9 10 10 9 6 12 10 10 10 9 9 8 7 7 4 2
7 10 11 12 14 14 12 12 12 12 13 13 14 12 12 13 13 12 12 12 11 12 11 11 9 11 11 10 10 9 9 9 11 10 9 9 9 9 8 7 6 2 7
3 7 10 12 14 14 11 12 12 13 6 14 14 14 13 14 12 11 12 12 12 11 11 11 11 11 10 9 9 10 9 8 10 9 8 8 9 8 8 7 8 7 6
1 4 10 12 13 14 14 13 13 13 13 6 10 12 12 12 12 12 11 11 12 11 11 10 10 10 8 9 10 10 9 7 10 9 8 8 8 8 7 7 7 7 6
0 2 8 12 13 8 14 14 13 13 13 14 7 9 11 12 11 11 12 11 11 11 11 10 11 10 10 10 10 10 9 10 7 9 8 8 7 8 7 6 7 6 7
0 2 5 10 13 9 14 14 13 13 13 13 12 10 6 7 11 11 11 11 11 11 11 11 11 11 11 11 10 9 7 9 7 8 9 8 8 8 7 7 7 7 6
-2 0 3 7 11 13 14 14 14 13 13 12 12 7 7 7 7 8 12 12 11 11 11 10 11 10 10 10 10 8 8 9 7 8 8 6 8 9 7 7 7 6 6
-3 -2 1 4 9 12 13 14 13 13 13 11 9 6 7 7 7 7 10 11 10 10 11 11 10 10 10 10 10 8 9 8 8 6 8 7 8 8 7 7 7 6 6
-1 -0 -0 1 4 10 12 12 13 13 12 9 12 13 11 9 8 6 11 10 10 10 10 11 10 10 10 9 9 9 8 8 8 6 7 8 7 7 7 9 8 7 6
2 2 3 3 4 6 10 11 13 13 13 12 9 12 11 11 9 7 10 11 10 11 11 11 9 10 10 9 9 8 9 9 8 6 7 7 6 7 8 8 7 7 6
3 3 4 4 5 7 10 11 13 12 12 12 9 8 10 10 9 11 10 10 11 11 10 10 10 9 9 9 9 8 9 8 8 8 6 6 7 7 7 7 7 6 7
3 4 7 6 6 7 10 11 12 12 12 12 11 11 11 10 10 9 9 10 11 11 10 9 10 8 9 8 9 7 7 7 8 8 7 6 7 6 7 6 7 7 6
1 4 7 8 8 8 9 11 12 12 12 12 12 11 11 11 9 11 10 10 11 10 10 9 9 9 8 8 8 6 7 8 7 6 7 6 6 6 7 7 6 6 7
2 4 6 8 9 9 9 11 12 11 12 11 12 12 12 11 10 10 10 10 10 10 10 10 10 9 9 8 8 6 7 7 6 6 7 6 6 6 5 6 6 6 6

GFSSE_850_dewp_114.txt.gz
Dewpoint
10 5 -6 -7 -6 -3 -2 3 9 11 11 11 10 11 10 9 9 6 4 5 6 7 8 9 10 11 11 11 12 11 9 11 12 11 11 10 10 11 11 11 12 11 12
9 -8 -8 -7 -7 -6 -1 4 7 9 10 10 10 11 11 9 10 7 5 6 7 11 13 10 11 11 11 10 10 9 8 9 10 10 10 9 10 10 12 12 10 11 11
-5 -6 -5 -8 -8 -3 3 6 7 9 8 8 9 11 11 10 10 8 5 6 7 8 10 9 10 10 10 10 10 9 9 9 10 10 10 11 11 11 12 11 10 11 11
-7 -5 -7 -10 -8 0 4 6 8 7 6 8 10 11 11 10 10 9 6 6 7 9 7 8 10 9 10 10 10 9 8 9 10 12 12 11 11 11 11 10 10 11 11
-5 -5 -7 -8 -11 -1 4 6 6 5 7 10 11 11 12 11 11 10 7 7 7 8 6 7 10 10 10 10 10 10 8 9 10 12 11 11 10 11 10 10 11 11 11
-5 -5 -7 -7 -11 -4 3 6 6 6 7 10 11 12 12 11 11 10 8 8 8 8 7 7 8 8 6 10 11 10 9 9 11 12 10 10 10 9 10 10 10 10 11
9 -5 -7 -7 -10 -7 -1 5 7 7 7 8 11 12 12 12 11 11 10 9 9 10 10 9 9 8 8 10 11 10 8 9 11 11 12 9 11 9 9 10 10 10 10
3 -3 -6 -7 -9 -8 -4 1 6 7 7 7 9 10 12 12 11 11 10 9 9 10 10 10 9 8 8 9 10 10 8 9 11 12 12 9 10 9 9 10 10 10 10
6 -3 -6 -7 -7 -7 -4 -0 3 5 7 8 7 8 9 11 11 11 11 10 10 10 10 10 9 9 9 9 10 10 8 9 11 12 11 8 10 9 10 10 9 10 10
7 -4 -6 -7 -7 -6 -4 -1 2 3 6 8 8 8 9 9 11 11 11 10 10 10 10 10 9 10 9 7 8 8 8 9 9 12 9 10 10 10 10 8 8 9 10
10 -1 -5 -7 -6 -5 -3 -0 2 3 4 6 8 9 9 9 10 11 11 11 11 11 10 10 9 10 9 9 9 6 6 8 10 9 9 10 10 10 9 7 8 8 9
13 10 3 -3 -5 -4 -2 -2 2 2 2 3 6 8 9 9 10 11 11 11 11 11 11 11 10 9 8 9 9 7 6 7 10 10 9 10 10 9 9 6 7 8 8
12 12 12 8 8 4 4 -0 -0 -1 2 2 3 7 9 10 10 12 13 13 12 11 12 11 11 9 9 9 9 9 7 9 12 10 10 9 9 9 9 8 7 6 6
10 11 11 11 10 8 11 12 10 6 2 -0 -0 2 11 12 12 12 12 12 13 12 11 12 11 10 9 8 10 9 9 7 8 7 8 10 9 9 10 9 7 6 3
6 9 10 10 11 10 10 13 13 13 9 7 10 9 11 12 12 12 12 13 12 12 11 11 11 10 9 9 10 9 10 9 9 7 9 9 9 8 9 9 8 6 2
2 6 8 10 10 11 12 12 12 13 12 11 13 12 12 12 12 12 12 12 12 11 11 11 11 11 10 10 10 9 10 9 9 8 10 8 8 8 8 8 8 7 3
-1 -0 8 9 10 10 12 12 13 12 11 12 9 10 13 12 12 12 11 11 11 11 12 11 11 11 10 10 10 9 9 10 9 9 10 8 8 8 8 6 8 7 7
-2 -1 4 9 11 11 11 14 13 13 13 13 12 9 6 12 12 12 11 11 11 11 11 11 11 11 10 10 9 9 10 10 8 9 10 8 7 7 7 6 7 7 7
-5 -2 -0 8 9 8 11 13 14 13 12 13 13 12 8 10 12 12 11 11 10 10 12 11 11 10 10 10 10 10 10 9 9 9 9 9 6 7 7 6 7 7 6
-5 -5 0 3 7 9 9 11 14 14 14 12 13 13 12 8 8 9 9 10 10 11 11 12 11 11 10 10 10 10 10 9 10 9 8 8 7 6 7 6 7 7 6
-3 -3 -2 1 6 9 11 11 12 14 14 13 13 13 13 9 9 8 8 7 10 10 9 10 11 11 11 10 10 10 10 9 9 9 8 7 6 7 7 7 6 7 6
-1 -0 0 0 1 5 10 9 11 13 14 14 13 12 12 12 9 9 8 7 9 11 9 10 10 11 10 10 9 10 9 10 9 8 7 7 6 6 6 7 7 6 6
2 3 3 3 4 4 4 9 11 12 14 14 13 12 13 13 12 10 9 7 8 11 12 10 10 10 9 10 10 10 9 9 9 8 8 7 7 6 6 6 7 6 5
2 3 4 6 6 5 5 6 10 11 11 11 12 12 12 13 13 12 11 10 9 9 11 10 11 10 10 10 9 9 8 7 8 8 7 8 6 4 6 7 6 6 7
2 3 5 6 8 7 7 7 9 10 10 11 11 11 12 12 12 13 12 11 10 8 9 10 11 10 9 10 9 9 8 8 8 8 7 7 8 7 5 4 7 8 7
0 3 4 5 6 7 8 8 9 11 11 11 11 11 11 11 12 13 12 11 10 8 10 10 9 9 9 9 9 9 8 7 8 7 6 6 8 7 5 7 6 6 5

GFSSE_850_dewp_117.txt.gz
Dewpoint
9 3 -2 -4 -5 -4 -0 6 9 10 11 10 10 10 10 10 8 4 3 4 5 6 7 9 10 10 11 12 12 11 10 11 11 12 12 11 10 11 11 11 11 11 11
7 -6 -8 -8 -7 -7 -3 5 8 10 10 10 10 11 10 10 9 5 4 5 5 6 7 9 10 11 11 11 10 9 8 9 10 11 11 10 10 10 10 11 10 11 11
-4 -7 -6 -7 -8 -5 -1 3 7 9 10 9 9 10 10 10 10 6 5 6 6 7 6 8 10 10 10 10 9 9 9 10 11 11 10 9 10 11 11 10 10 11 11
-6 -6 -8 -10 -8 -2 2 5 7 8 8 7 7 10 11 10 10 8 6 6 7 11 8 6 7 8 9 9 9 9 9 10 10 10 10 10 10 11 10 10 10 11 11
-5 -7 -9 -12 -10 -2 3 6 6 6 6 7 9 10 11 10 10 9 7 7 8 9 8 6 6 5 6 8 9 8 8 9 11 11 10 10 10 10 10 11 11 11 11
-5 -7 -8 -12 -10 -2 4 5 5 5 7 9 10 11 11 11 11 10 8 7 8 9 8 7 6 7 8 8 10 9 8 10 10 12 10 9 9 10 10 10 11 11 11
-5 -7 -7 -9 -11 -4 2 5 6 6 6 8 10 11 12 11 11 11 10 8 9 10 9 9 8 8 6 8 9 10 9 10 10 11 11 10 9 9 9 10 10 11 10
-4 -6 -7 -7 -11 -8 -3 3 6 7 7 7 8 10 11 12 11 11 10 9 9 10 10 9 9 8 8 8 9 10 9 10 11 10 11 11 9 8 8 9 10 10 9
-2 -6 -7 -7 -9 -9 -7 -3 2 6 7 7 7 8 9 11 11 10 11 10 10 10 10 10 9 8 8 8 8 10 9 9 10 10 9 9 10 8 8 9 10 9 9
1 -3 -6 -7 -8 -9 -8 -6 -4 0 4 6 7 7 8 9 10 10 10 11 10 11 11 10 10 9 8 6 8 10 9 9 11 11 10 10 10 9 9 10 9 9 9
6 1 -6 -7 -7 -8 -8 -7 -5 -2 1 4 6 7 8 8 8 9 10 10 10 11 10 10 10 9 9 8 8 6 8 9 10 9 8 9 10 9 10 10 9 8 8
6 3 -1 -6 -6 -6 -6 -6 -5 -3 -1 2 4 6 7 8 8 9 9 10 11 11 11 10 10 9 9 9 7 7 6 8 10 9 9 9 9 9 9 10 9 8 9
7 4 -2 -4 -6 -6 -6 -6 -4 -4 -3 1 3 5 7 8 8 9 9 10 11 11 11 11 11 10 10 8 8 8 7 6 8 11 10 9 9 9 9 8 8 9 7
9 8 6 -0 -2 -4 -6 -5 -4 -4 -4 -2 0 3 5 8 9 9 9 11 11 11 11 11 11 11 11 9 9 9 8 7 6 9 8 7 9 9 8 8 9 8 7
9 8 6 1 0 1 2 -1 -1 1 -2 1 0 0 1 6 9 10 11 11 11 12 12 12 11 11 11 10 8 9 9 8 7 9 8 8 9 10 9 8 9 9 9
9 8 7 5 1 -1 1 3 3 5 8 8 8 3 3 5 9 10 11 11 11 12 12 12 11 11 11 10 9 9 9 9 9 8 9 8 10 10 8 9 9 9 8
-1 8 10 8 7 7 6 7 8 6 11 12 10 9 6 8 10 11 12 12 11 11 11 12 12 11 11 11 9 9 9 9 9 9 9 8 8 9 8 8 8 8 8
-4 -2 6 10 9 9 9 9 10 8 11 12 12 10 8 8 10 11 12 11 11 11 11 11 12 12 11 10 10 9 9 9 9 10 9 9 8 8 9 7 7 8 7
-6 -4 0 7 9 9 9 10 10 10 12 13 13 12 12 9 11 11 10 12 12 12 11 11 11 12 11 11 10 10 9 9 9 10 9 10 9 8 8 6 6 7 7
-6 -5 -3 3 7 8 10 10 10 10 13 13 12 12 13 12 11 12 12 12 12 11 11 11 11 12 12 10 10 10 9 9 10 9 9 9 9 7 7 6 6 7 7
-6 -6 -5 2 8 10 11 12 12 8 8 13 13 12 11 13 13 13 13 13 13 12 10 10 11 12 11 11 11 11 10 10 10 9 10 10 8 7 6 6 6 6 7
-3 -2 1 7 10 10 11 11 10 7 6 10 13 13 12 12 13 11 14 13 13 11 12 11 10 11 12 11 10 10 10 10 10 10 10 10 8 7 6 6 6 7 7
-2 -1 -1 2 5 6 4 6 10 11 12 12 15 14 13 13 13 12 10 13 13 12 11 11 12 10 10 10 11 10 9 9 9 9 9 9 8 6 6 6 6 6 6
-1 -1 0 2 3 5 8 9 5 6 6 9 11 14 14 13 12 12 12 12 13 11 10 10 10 10 10 10 10 10 9 8 9 9 9 9 8 7 6 5 6 6 6
2 3 3 4 4 4 5 7 8 6 7 10 10 13 14 12 11 12 12 12 12 10 10 11 10 9 10 10 10 9 9 9 8 8 9 9 8 8 7 6 6 6 6
4 5 5 5 4 5 6 8 8 9 9 9 11 11 12 10 11 11 12 12 11 11 10 10 9 10 9 10 10 9 8 9 8 8 8 8 8 8 6 5 6 6 5